EW6902 Weather Reports


time (UTC)temp
C
wind
direction
speed
KPH
gust
KPH
rain 1hr
cm
rain 24hr
cm
rain mn
cm
humidity
%
barometer
mb
20260505002003 21 0 0.0 0.0 0.00 0.00 0.00 39 1012.4
20260505001503 21 0 0.0 0.0 0.00 0.00 0.00 39 1012.4
20260505001004 21 0 0.0 0.0 0.00 0.00 0.00 38 1012.4
20260505000503 22 0 0.0 0.0 0.00 0.00 0.00 37 1012.4
20260505000003 22 0 0.0 0.0 0.00 0.00 0.00 37 1012.3
20260504235716 22 0 0.0 0.0 0.00 0.00 0.00 36 1012.3
20260504235003 22 0 0.0 0.0 0.00 0.00 0.00 36 1012.2
20260504234503 22 0 0.0 0.0 0.00 0.00 0.00 35 1012.2
20260504234003 23 0 0.0 0.0 0.00 0.00 0.00 35 1012.0
20260504233503 23 0 0.0 0.0 0.00 0.00 0.00 35 1012.1
20260504233003 23 0 0.0 0.0 0.00 0.00 0.00 34 1012.0
20260504232503 23 0 0.0 0.0 0.00 0.00 0.00 34 1011.9
20260504232003 23 0 0.0 0.0 0.00 0.00 0.00 35 1011.9
20260504231503 23 0 0.0 0.0 0.00 0.00 0.00 33 1012.0
20260504231217 23 0 0.0 0.0 0.00 0.00 0.00 33 1012.0
20260504230503 24 0 0.0 0.0 0.00 0.00 0.00 32 1011.9
20260504230004 24 0 0.0 0.0 0.00 0.00 0.00 31 1011.9
20260504225503 24 0 0.0 1.6 0.00 0.00 0.00 31 1011.8
20260504225003 25 0 0.0 1.6 0.00 0.00 0.00 30 1011.9
20260504224503 25 0 0.0 0.0 0.00 0.00 0.00 29 1011.9
20260504224003 25 0 0.0 8.0 0.00 0.00 0.00 30 1011.9
20260504223503 25 0 0.0 8.0 0.00 0.00 0.00 27 1011.9
20260504223003 25 0 0.0 4.8 0.00 0.00 0.00 28 1011.8
20260504222503 25 0 0.0 4.8 0.00 0.00 0.00 26 1011.9
20260504222003 25 0 0.0 0.0 0.00 0.00 0.00 27 1011.8
20260504221503 25 0 0.0 0.0 0.00 0.00 0.00 28 1011.9
20260504221003 25 0 0.0 3.2 0.00 0.00 0.00 28 1011.8
20260504220503 25 0 0.0 3.2 0.00 0.00 0.00 26 1011.9
20260504220003 25 0 0.0 1.6 0.00 0.00 0.00 27 1011.9
20260504215503 26 0 0.0 4.8 0.00 0.00 0.00 26 1011.9
20260504215003 26 0 0.0 4.8 0.00 0.00 0.00 27 1011.9
20260504214503 26 0 0.0 4.8 0.00 0.00 0.00 26 1011.9
20260504214216 26 0 0.0 4.8 0.00 0.00 0.00 26 1011.9
20260504213503 26 0 0.0 3.2 0.00 0.00 0.00 26 1011.9
20260504213003 26 0 0.0 8.0 0.00 0.00 0.00 27 1012.0
20260504212504 26 0 0.0 8.0 0.00 0.00 0.00 28 1011.9
20260504212003 26 0 0.0 4.8 0.00 0.00 0.00 29 1012.0
20260504211503 26 0 0.0 4.8 0.00 0.00 0.00 29 1011.9
20260504211003 26 0 0.0 3.2 0.00 0.00 0.00 29 1012.0
20260504210503 26 0 0.0 0.0 0.00 0.00 0.00 29 1011.9
20260504210004 26 0 0.0 0.0 0.00 0.00 0.00 31 1012.0
20260504205503 26 0 0.0 0.0 0.00 0.00 0.00 31 1012.1
20260504205003 26 0 0.0 0.0 0.00 0.00 0.00 28 1012.1
20260504204504 26 0 0.0 3.2 0.00 0.00 0.00 28 1012.2
20260504204216 26 0 0.0 3.2 0.00 0.00 0.00 29 1012.3
20260504203503 26 0 0.0 4.8 0.00 0.00 0.00 27 1012.3
20260504203003 26 0 0.0 4.8 0.00 0.00 0.00 29 1012.4
20260504202503 26 0 0.0 3.2 0.00 0.00 0.00 28 1012.5
20260504202004 26 0 0.0 1.6 0.00 0.00 0.00 29 1012.6
20260504201503 26 0 0.0 0.0 0.00 0.00 0.00 31 1012.6
20260504201003 26 0 0.0 0.0 0.00 0.00 0.00 30 1012.6
20260504200503 26 0 0.0 3.2 0.00 0.00 0.00 28 1012.5
20260504200003 26 0 0.0 3.2 0.00 0.00 0.00 28 1012.7
20260504195503 26 0 0.0 6.4 0.00 0.00 0.00 28 1012.8
20260504195003 26 0 0.0 6.4 0.00 0.00 0.00 27 1012.8
20260504194503 26 0 0.0 3.2 0.00 0.00 0.00 26 1012.8
20260504194003 26 0 0.0 3.2 0.00 0.00 0.00 27 1012.9
20260504193503 26 0 0.0 0.0 0.00 0.00 0.00 28 1012.9
20260504193004 26 0 0.0 1.6 0.00 0.00 0.00 27 1012.9
20260504192503 26 0 0.0 1.6 0.00 0.00 0.00 26 1013.0
20260504192003 26 0 0.0 4.8 0.00 0.00 0.00 27 1013.1
20260504191503 26 0 0.0 4.8 0.00 0.00 0.00 29 1013.1
20260504191215 26 0 0.0 1.6 0.00 0.00 0.00 32 1013.2
20260504190504 26 0 0.0 0.0 0.00 0.00 0.00 28 1013.3
20260504190004 26 0 0.0 0.0 0.00 0.00 0.00 28 1013.5
20260504185714 26 0 0.0 0.0 0.00 0.00 0.00 27 1013.5
20260504185003 26 0 0.0 1.6 0.00 0.00 0.00 30 1013.6
20260504184503 26 0 0.0 1.6 0.00 0.00 0.00 30 1013.6
20260504184003 26 0 0.0 0.0 0.00 0.00 0.00 28 1013.7
20260504183716 26 0 0.0 1.6 0.00 0.00 0.00 30 1013.7
20260504183003 25 0 0.0 1.6 0.00 0.00 0.00 33 1013.9
20260504182503 25 0 0.0 0.0 0.00 0.00 0.00 31 1013.9
20260504182003 25 0 0.0 1.6 0.00 0.00 0.00 30 1014.0
20260504181717 26 0 0.0 1.6 0.00 0.00 0.00 31 1014.0
20260504181004 25 0 0.0 0.0 0.00 0.00 0.00 33 1014.0
20260504180503 25 0 0.0 1.6 0.00 0.00 0.00 34 1014.0
20260504180004 25 0 0.0 1.6 0.00 0.00 0.00 32 1014.1
20260504175714 25 0 0.0 0.0 0.00 0.00 0.00 37 1014.1
20260504175003 24 0 0.0 1.6 0.00 0.00 0.00 34 1014.1
20260504174503 25 0 0.0 1.6 0.00 0.00 0.00 33 1014.1
20260504174003 25 0 0.0 3.2 0.00 0.00 0.00 32 1014.1
20260504173503 25 0 0.0 3.2 0.00 0.00 0.00 33 1014.2
20260504173003 25 0 0.0 1.6 0.00 0.00 0.00 33 1014.3
20260504172504 25 0 0.0 1.6 0.00 0.00 0.00 34 1014.4
20260504172004 25 0 0.0 1.6 0.00 0.00 0.00 32 1014.5
20260504171503 25 0 0.0 3.2 0.00 0.00 0.00 31 1014.6
20260504171003 24 0 0.0 4.8 0.00 0.00 0.00 33 1014.6
20260504170503 24 0 0.0 4.8 0.00 0.00 0.00 32 1014.6
20260504160218 22 0 0.0 3.2 0.00 0.00 0.00 36 1015.9
20260504151003 21 0 0.0 0.0 0.00 0.00 0.00 48 1016.1
20260504150503 20 0 0.0 0.0 0.00 0.00 0.00 47 1016.1
20260504150213 20 0 0.0 0.0 0.00 0.00 0.00 46 1016.1
20260504141003 16 0 0.0 0.0 0.00 0.00 0.00 65 1016.0
20260504140504 16 0 0.0 0.0 0.00 0.00 0.00 67 1015.9
20260504130503 11 0 0.0 1.6 0.00 0.00 0.00 82 1016.2
20260504110503 5 0 0.0 0.0 0.00 0.00 0.00 89 1015.7
20260504100503 6 0 0.0 0.0 0.00 0.00 0.00 88 1015.1
20260504100216 6 0 0.0 0.0 0.00 0.00 0.00 88 1015.2
20260504082003 6 0 0.0 0.0 0.00 0.00 0.00 86 1015.1
20260504081503 6 0 0.0 0.0 0.00 0.00 0.00 86 1015.0
20260504081003 6 0 0.0 0.0 0.00 0.00 0.00 86 1015.0
20260504080715 6 0 0.0 0.0 0.00 0.00 0.00 86 1014.9
20260504050503 8 0 0.0 0.0 0.00 0.00 0.00 77 1015.2
20260504050004 8 0 0.0 0.0 0.00 0.00 0.00 77 1015.2
20260504045504 8 0 0.0 0.0 0.00 0.00 0.00 76 1015.2
20260504045003 8 0 0.0 0.0 0.00 0.00 0.00 76 1015.2
20260504044503 8 0 0.0 0.0 0.00 0.00 0.00 76 1015.2
20260504044216 8 0 0.0 0.0 0.00 0.00 0.00 76 1015.2
20260504043503 9 0 0.0 0.0 0.00 0.00 0.00 75 1015.2
20260504043003 9 0 0.0 0.0 0.00 0.00 0.00 75 1015.3
20260504042503 9 0 0.0 0.0 0.00 0.00 0.00 74 1015.2
20260504042004 9 0 0.0 0.0 0.00 0.00 0.00 75 1015.3
20260504041503 9 0 0.0 0.0 0.00 0.00 0.00 74 1015.4
20260504041003 10 0 0.0 0.0 0.00 0.00 0.00 74 1015.5
20260504040503 10 0 0.0 0.0 0.00 0.00 0.00 74 1015.5
20260504040019 10 0 0.0 0.0 0.00 0.00 0.00 73 1015.6
20260504035503 10 0 0.0 0.0 0.00 0.00 0.00 72 1015.6
20260504035003 10 0 0.0 0.0 0.00 0.00 0.00 71 1015.6
20260504034503 10 0 0.0 0.0 0.00 0.00 0.00 70 1015.5
20260504034004 10 0 0.0 0.0 0.00 0.00 0.00 70 1015.5
20260504033504 10 0 0.0 0.0 0.00 0.00 0.00 70 1015.5
20260504033213 10 0 0.0 0.0 0.00 0.00 0.00 69 1015.5
20260504032503 11 0 0.0 0.0 0.00 0.00 0.00 69 1015.6
20260504032003 11 0 0.0 0.0 0.00 0.00 0.00 68 1015.6
20260504031504 11 0 0.0 0.0 0.00 0.00 0.00 68 1015.7
20260504031003 11 0 0.0 0.0 0.00 0.00 0.00 67 1015.7
20260504030503 11 0 0.0 0.0 0.00 0.00 0.00 67 1015.7
20260504030004 11 0 0.0 0.0 0.00 0.00 0.00 66 1015.7
20260504025503 11 0 0.0 0.0 0.00 0.00 0.00 66 1015.6
20260504025003 11 0 0.0 0.0 0.00 0.00 0.00 66 1015.6
20260504024503 11 0 0.0 0.0 0.00 0.00 0.00 65 1015.7
20260504024217 11 0 0.0 0.0 0.00 0.00 0.00 64 1015.6
20260504023503 12 0 0.0 0.0 0.00 0.00 0.00 63 1015.5
20260504023213 12 0 0.0 0.0 0.00 0.00 0.00 63 1015.4
20260504022716 12 0 0.0 0.0 0.00 0.00 0.00 62 1015.4
20260504022003 12 0 0.0 0.0 0.00 0.00 0.00 61 1015.2
20260504021503 12 0 0.0 0.0 0.00 0.00 0.00 61 1015.2
20260504021003 12 0 0.0 0.0 0.00 0.00 0.00 60 1015.1
20260504020713 12 0 0.0 0.0 0.00 0.00 0.00 59 1015.1
20260504020004 13 0 0.0 0.0 0.00 0.00 0.00 58 1015.0
20260504015503 13 0 0.0 0.0 0.00 0.00 0.00 58 1014.9
20260504015003 13 0 0.0 0.0 0.00 0.00 0.00 57 1014.9
20260504014503 13 0 0.0 0.0 0.00 0.00 0.00 57 1014.9
20260504014003 13 0 0.0 0.0 0.00 0.00 0.00 56 1014.8
20260504013503 13 0 0.0 0.0 0.00 0.00 0.00 56 1014.7
20260504013003 13 0 0.0 0.0 0.00 0.00 0.00 55 1014.6
20260504012717 13 0 0.0 0.0 0.00 0.00 0.00 56 1014.6
20260504012003 14 0 0.0 0.0 0.00 0.00 0.00 57 1014.6
20260504011503 14 0 0.0 0.0 0.00 0.00 0.00 57 1014.5
20260504011216 14 0 0.0 0.0 0.00 0.00 0.00 56 1014.5
20260504010503 14 0 0.0 0.0 0.00 0.00 0.00 54 1014.4
20260504010004 14 0 0.0 0.0 0.00 0.00 0.00 55 1014.4
20260504005503 14 0 0.0 0.0 0.00 0.00 0.00 54 1014.4
20260504005004 15 0 0.0 0.0 0.00 0.00 0.00 53 1014.4
20260504004716 15 0 0.0 0.0 0.00 0.00 0.00 53 1014.3
20260504004003 15 0 0.0 0.0 0.00 0.00 0.00 52 1014.3
20260504003503 15 0 0.0 0.0 0.00 0.00 0.00 50 1014.4
20260504003003 15 0 0.0 0.0 0.00 0.00 0.00 50 1014.3
20260504002504 16 0 0.0 0.0 0.00 0.00 0.00 50 1014.2
20260504002216 16 0 0.0 0.0 0.00 0.00 0.00 49 1014.2